GW7376 Weather Reports


Display with metric or nautical units.
time (UTC)temp
F
wind
direction
speed
MPH
gust
MPH
rain 1hr
in
rain 24hr
in
rain mn
in
humidity
%
barometer
mb
20260505121142 71 240 0.0 2.0 0.00 0.00 0.00 88 993.9
20260505120643 71 326 1.0 2.0 0.00 0.00 0.00 88 994.0
20260505120151 71 53 2.0 3.0 0.00 0.00 0.00 88 994.3
20260505115541 71 193 2.0 3.0 0.00 0.00 0.00 88 994.1
20260505115041 71 297 1.0 4.0 0.00 0.00 0.00 88 994.3
20260505114451 71 166 1.0 4.0 0.00 0.00 0.00 88 994.2
20260505113851 71 165 1.0 4.0 0.00 0.00 0.00 88 994.2
20260505113251 71 310 1.0 3.0 0.00 0.00 0.00 88 994.1
20260505112742 71 241 0.0 3.0 0.00 0.00 0.00 88 994.4
20260505112142 71 89 0.0 3.0 0.00 0.00 0.00 88 994.6
20260505111642 71 235 2.0 4.0 0.00 0.00 0.00 88 994.2
20260505111144 71 211 1.0 4.0 0.00 0.00 0.00 88 993.9
20260505110543 71 178 2.0 4.0 0.00 0.00 0.00 88 993.9
20260505101641 71 171 2.0 4.0 0.00 0.00 0.00 88 994.2
20260505101051 70 140 0.0 4.0 0.00 0.00 0.00 88 994.2
20260505100540 70 255 3.0 3.0 0.00 0.00 0.00 88 994.1
20260505100041 70 202 1.0 3.0 0.00 0.00 0.00 88 994.1
20260505095441 70 196 2.0 3.0 0.00 0.00 0.00 88 994.2
20260505094940 70 337 2.0 4.0 0.00 0.00 0.00 88 994.5
20260505094341 70 186 2.0 2.0 0.00 0.00 0.00 88 994.1
20260505093841 70 117 2.0 3.0 0.00 0.00 0.00 87 994.4
20260505093241 70 48 4.0 4.0 0.00 0.00 0.00 88 994.3
20260505092652 70 40 1.0 3.0 0.00 0.00 0.00 87 994.5
20260505092041 70 333 2.0 3.0 0.00 0.00 0.00 87 994.6
20260505091441 70 91 1.0 3.0 0.00 0.00 0.00 87 994.6
20260505090941 70 110 2.0 4.0 0.00 0.00 0.00 87 994.8
20260505090343 70 236 2.0 3.0 0.00 0.00 0.00 87 994.5
20260505085843 70 306 1.0 3.0 0.00 0.00 0.00 86 994.6
20260505085252 70 52 1.0 3.0 0.00 0.00 0.00 86 994.6
20260505084742 70 258 3.0 4.0 0.00 0.00 0.00 86 994.9
20260505084142 70 207 0.0 2.0 0.00 0.00 0.00 86 994.7
20260505083544 70 344 1.0 4.0 0.00 0.00 0.00 86 994.7
20260505083041 70 81 2.0 3.0 0.00 0.00 0.00 86 995.0
20260505082542 70 180 0.0 3.0 0.00 0.00 0.00 86 995.0
20260505081942 70 224 0.0 2.0 0.00 0.00 0.00 85 995.0
20260505081343 70 332 0.0 3.0 0.00 0.00 0.00 85 995.1
20260505080842 70 80 2.0 2.0 0.00 0.00 0.00 85 994.9
20260505080242 70 210 1.0 2.0 0.00 0.00 0.00 85 995.1
20260505075742 70 209 1.0 1.0 0.00 0.00 0.00 85 995.1
20260505075144 70 186 1.0 1.0 0.00 0.00 0.00 84 995.1
20260505074641 70 185 0.0 2.0 0.00 0.00 0.00 84 995.0
20260505074041 70 62 0.0 2.0 0.00 0.00 0.00 84 995.0
20260505073553 70 174 0.0 1.0 0.00 0.00 0.00 84 995.1
20260505072945 70 205 0.0 1.0 0.00 0.00 0.00 84 995.3
20260505072441 70 193 0.0 1.0 0.00 0.00 0.00 83 995.4
20260505071841 70 324 0.0 2.0 0.00 0.00 0.00 83 995.6
20260505071743 70 179 1.0 2.0 0.00 0.00 0.00 83 995.4
20260505002122 77 230 0.0 1.0 0.00 0.00 0.00 61 996.0
20260505001523 77 38 0.0 2.0 0.00 0.00 0.00 60 995.9
20260505000933 77 195 3.0 3.0 0.00 0.00 0.00 59 996.0
20260505000423 77 53 0.0 2.0 0.00 0.00 0.00 60 995.6
20260504235922 78 191 0.0 1.0 0.00 0.00 0.00 59 995.7
20260504235324 78 211 1.0 2.0 0.00 0.00 0.00 59 995.7
20260504234832 78 217 0.0 3.0 0.00 0.00 0.00 58 995.8
20260504234322 78 83 2.0 3.0 0.00 0.00 0.00 58 995.8
20260504233722 78 22 2.0 2.0 0.00 0.00 0.00 58 996.0
20260504233225 78 19 0.0 2.0 0.00 0.00 0.00 58 995.6
20260504232623 78 225 2.0 2.0 0.00 0.00 0.00 59 995.8
20260504232122 78 236 1.0 3.0 0.00 0.00 0.00 57 995.9
20260504231523 78 239 2.0 3.0 0.00 0.00 0.00 57 996.3
20260504230924 78 241 2.0 2.0 0.00 0.00 0.00 57 996.3
20260504230423 78 264 1.0 3.0 0.00 0.00 0.00 56 996.2
20260504225926 78 337 0.0 3.0 0.00 0.00 0.00 57 996.7
20260504225423 79 211 3.0 4.0 0.00 0.00 0.00 56 996.5
20260504224828 79 264 2.0 2.0 0.00 0.00 0.00 56 996.6
20260504224334 79 260 2.0 4.0 0.00 0.00 0.00 55 996.6
20260504223725 79 217 3.0 4.0 0.00 0.00 0.00 56 996.5
20260504223225 79 229 1.0 3.0 0.00 0.00 0.00 56 996.5
20260504222723 79 218 4.0 4.0 0.00 0.00 0.00 55 996.6
20260504222232 79 288 3.0 4.0 0.00 0.00 0.00 54 996.9
20260504221723 80 259 1.0 3.0 0.00 0.00 0.00 55 996.9
20260504221222 80 228 2.0 6.0 0.00 0.00 0.00 53 996.7
20260504220635 80 89 1.0 2.0 0.00 0.00 0.00 53 996.8
20260504220024 79 238 2.0 4.0 0.00 0.00 0.00 55 996.8
20260504215533 79 200 3.0 4.0 0.00 0.00 0.00 54 997.0
20260504215033 80 235 3.0 5.0 0.00 0.00 0.00 54 997.0
20260504214423 80 29 0.0 2.0 0.00 0.00 0.00 54 997.1
20260504213924 80 214 1.0 2.0 0.00 0.00 0.00 53 997.1
20260504213432 80 205 3.0 4.0 0.00 0.00 0.00 52 997.2
20260504212823 80 225 3.0 5.0 0.00 0.00 0.00 50 997.3
20260504212322 81 224 0.0 5.0 0.00 0.00 0.00 52 997.5
20260504211726 80 278 2.0 4.0 0.00 0.00 0.00 51 997.6
20260504211225 80 219 4.0 4.0 0.00 0.00 0.00 51 997.5
20260504210624 79 89 0.0 2.0 0.00 0.00 0.00 53 997.7
20260504210124 79 205 0.0 3.0 0.00 0.00 0.00 51 998.0
20260504205525 79 249 2.0 3.0 0.00 0.00 0.00 54 998.0
20260504204925 78 204 2.0 3.0 0.00 0.00 0.00 53 998.0
20260504204423 78 202 1.0 3.0 0.00 0.00 0.00 53 998.0
20260504203836 78 220 3.0 3.0 0.00 0.00 0.00 54 998.2
20260504203325 78 196 0.0 4.0 0.00 0.00 0.00 53 998.2
20260504202834 79 205 2.0 2.0 0.00 0.00 0.00 51 998.3
20260504202322 79 289 1.0 2.0 0.00 0.00 0.00 51 998.2
20260504201635 80 224 0.0 2.0 0.00 0.00 0.00 51 998.5
20260504201122 80 261 2.0 3.0 0.00 0.00 0.00 52 998.6
20260504200623 80 208 1.0 3.0 0.00 0.00 0.00 51 998.9
20260504200023 80 232 2.0 2.0 0.00 0.00 0.00 51 999.0
20260504195426 80 295 1.0 3.0 0.00 0.00 0.00 51 999.0
20260504194923 80 248 1.0 2.0 0.00 0.00 0.00 50 999.0
20260504194325 79 265 2.0 5.0 0.00 0.00 0.00 51 999.0
20260504193821 79 263 2.0 9.0 0.00 0.00 0.00 50 998.8
20260504193321 79 185 2.0 3.0 0.00 0.00 0.00 49 999.1
20260504192731 79 212 0.0 4.0 0.00 0.00 0.00 49 999.2
20260504192221 79 242 2.0 2.0 0.00 0.00 0.00 51 998.9
20260504191732 79 65 2.0 2.0 0.00 0.00 0.00 49 999.3
20260504191122 79 299 5.0 6.0 0.00 0.00 0.00 50 999.2
20260504190624 78 251 3.0 6.0 0.00 0.00 0.00 51 999.6
20260504190022 78 214 2.0 3.0 0.00 0.00 0.00 49 999.8
20260504185432 79 194 2.0 4.0 0.00 0.00 0.00 50 999.8
20260504184822 79 246 0.0 3.0 0.00 0.00 0.00 50 1000.1
20260504184233 78 233 1.0 5.0 0.00 0.00 0.00 50 999.7
20260504183722 78 101 1.0 2.0 0.00 0.00 0.00 49 1000.1
20260504183232 77 240 4.0 4.0 0.00 0.00 0.00 51 999.8
20260504182623 77 236 3.0 4.0 0.00 0.00 0.00 51 1000.1
20260504182024 77 220 4.0 4.0 0.00 0.00 0.00 50 1000.5
20260504181522 77 226 3.0 4.0 0.00 0.00 0.00 50 1000.3
20260504181032 77 273 4.0 5.0 0.00 0.00 0.00 51 1000.3
20260504180423 77 103 0.0 4.0 0.00 0.00 0.00 50 1000.5
20260504175923 77 169 2.0 2.0 0.00 0.00 0.00 51 1000.5
20260504175424 77 207 2.0 3.0 0.00 0.00 0.00 51 1000.3
20260504174922 76 302 2.0 4.0 0.00 0.00 0.00 51 1000.4
20260504174423 76 180 2.0 4.0 0.00 0.00 0.00 51 1000.2
20260504173832 76 217 4.0 4.0 0.00 0.00 0.00 53 1000.7
20260504173323 76 337 0.0 3.0 0.00 0.00 0.00 52 1000.8
20260504172724 75 116 3.0 5.0 0.00 0.00 0.00 52 1000.6
20260504172123 76 216 1.0 3.0 0.00 0.00 0.00 53 1001.0
20260504171522 75 337 0.0 3.0 0.00 0.00 0.00 53 1001.1
20260504170932 75 88 1.0 4.0 0.00 0.00 0.00 53 1000.9
20260504170423 74 108 0.0 3.0 0.00 0.00 0.00 56 1001.3
20260504151123 71 269 1.0 5.0 0.00 0.00 0.00 58 1001.9
20260504150623 71 304 0.0 4.0 0.00 0.00 0.00 59 1001.9
20260504141122 67 246 0.0 3.0 0.00 0.00 0.00 66 1001.8
20260504140623 67 245 1.0 2.0 0.00 0.00 0.00 66 1001.9
20260504130623 58 193 0.0 2.0 0.00 0.00 0.00 90 1002.0